FW0743 Weather Reports


Display with metric or nautical units.
time (UTC)temp
F
wind
direction
speed
MPH
gust
MPH
rain 1hr
in
rain 24hr
in
rain mn
in
humidity
%
barometer
mb
20260507141503 41 316 2.0 8.0 0.00 0.00 0.00 62 1013.3
20260507140004 40 296 2.0 10.0 0.00 0.01 0.00 64 1013.3
20260507134503 41 323 5.0 14.0 0.00 0.02 0.00 61 1013.5
20260507133003 41 302 7.0 12.0 0.00 0.03 0.00 62 1013.3
20260507131504 41 319 4.0 11.0 0.00 0.04 0.00 66 1013.2
20260507130005 40 277 4.0 8.0 0.00 0.04 0.00 65 1013.1
20260507124513 41 344 2.0 8.0 0.00 0.06 0.00 68 1013.1
20260507123005 39 340 6.0 10.0 0.00 0.08 0.00 68 1013.1
20260507121505 39 307 3.0 10.0 0.00 0.09 0.00 69 1013.1
20260507120005 38 318 2.0 10.0 0.00 0.10 0.00 73 1013.1
20260507114509 38 333 4.0 9.0 0.00 0.11 0.00 73 1013.0
20260507113008 37 292 1.0 5.0 0.00 0.13 0.00 78 1012.8
20260507111504 37 339 3.0 9.0 0.00 0.15 0.00 76 1012.8
20260507110012 35 298 3.0 7.0 0.00 0.18 0.00 81 1012.7
20260507104508 33 306 1.0 4.0 0.00 0.19 0.00 86 1012.6
20260507103010 32 273 0.0 3.0 0.00 0.21 0.00 90 1012.6
20260507101510 31 309 0.0 3.0 0.00 0.22 0.00 90 1012.3
20260507100010 31 269 0.0 1.0 0.00 0.23 0.00 89 1012.6
20260507094508 31 269 0.0 3.0 0.00 0.23 0.00 88 1012.4
20260507093008 31 249 1.0 3.0 0.00 0.24 0.00 88 1012.5
20260507091532 32 252 0.0 3.0 0.00 0.26 0.00 86 1012.5
20260507090011 33 314 0.0 2.0 0.00 0.27 0.00 86 1012.5
20260507084504 33 246 0.0 2.0 0.00 0.28 0.00 86 1012.6
20260507083016 33 313 0.0 3.0 0.00 0.29 0.00 85 1012.5
20260507081513 33 284 0.0 2.0 0.00 0.30 0.00 84 1012.6
20260507080013 34 284 0.0 3.0 0.00 0.31 0.00 82 1012.7
20260507074513 35 284 0.0 4.0 0.00 0.32 0.00 81 1012.4
20260507073007 36 308 0.0 4.0 0.00 0.33 0.00 80 1012.3
20260507071512 36 306 1.0 3.0 0.00 0.36 0.00 78 1012.2
20260507070016 37 287 1.0 9.0 0.00 0.37 0.00 75 1012.0
20260507064515 37 315 3.0 8.0 0.00 0.37 0.00 74 1012.0
20260507063006 37 308 3.0 9.0 0.00 0.38 0.00 74 1012.2
20260507061525 37 333 3.0 9.0 0.00 0.39 0.00 74 1012.2
20260507060026 38 323 3.0 11.0 0.00 0.40 0.00 72 1012.4
20260507054515 39 323 7.0 12.0 0.00 0.41 0.00 75 1012.3
20260507053004 39 305 7.0 12.0 0.00 0.41 0.00 82 1012.4
20260507051507 39 331 2.0 9.0 0.00 0.41 0.00 88 1012.3
20260507050027 39 300 4.0 10.0 0.00 0.41 0.00 90 1012.2
20260507044531 39 317 4.0 8.0 0.00 0.42 0.00 92 1012.3
20260507043016 39 264 5.0 10.0 0.00 0.44 0.00 93 1012.3
20260507041503 40 310 3.0 10.0 0.00 0.45 0.00 93 1012.1
20260507040010 40 338 2.0 4.0 0.00 0.47 0.00 93 1012.0
20260507034512 40 321 2.0 5.0 0.00 0.48 0.47 92 1012.0
20260507033019 40 293 1.0 3.0 0.00 0.50 0.47 93 1011.9
20260507031517 40 335 1.0 3.0 0.00 0.51 0.47 92 1012.1
20260507030008 40 336 1.0 4.0 0.00 0.52 0.47 91 1011.8
20260507024511 41 341 2.0 8.0 0.00 0.55 0.47 91 1012.1
20260507023017 41 343 1.0 3.0 0.00 0.57 0.47 93 1012.1
20260507021520 41 281 0.0 3.0 0.00 0.58 0.47 94 1012.2
20260507020022 41 281 0.0 2.0 0.00 0.61 0.47 94 1012.2
20260507014510 41 281 0.0 3.0 0.00 0.63 0.47 93 1012.2
20260507013011 41 281 0.0 1.0 0.00 0.65 0.47 93 1012.0
20260507011528 41 281 0.0 2.0 0.00 0.68 0.47 93 1011.8
20260507010022 41 281 0.0 2.0 0.00 0.69 0.47 92 1011.7
20260507004524 41 281 0.0 2.0 0.00 0.70 0.47 92 1011.7
20260507003010 41 281 1.0 3.0 0.00 0.71 0.47 92 1011.7
20260507001518 41 281 1.0 4.0 0.00 0.76 0.47 92 1011.6
20260507000026 42 287 1.0 3.0 0.00 0.81 0.47 91 1011.4
20260506234522 42 244 0.0 3.0 0.00 0.81 0.47 91 1011.0
20260506233023 42 305 1.0 4.0 0.00 0.81 0.47 91 1010.8
20260506231513 42 346 2.0 4.0 0.00 0.81 0.47 90 1010.5
20260506230017 42 11 0.0 3.0 0.00 0.81 0.47 90 1010.2
20260506224523 42 19 0.0 3.0 0.00 0.81 0.47 90 1010.7
20260506223024 42 348 0.0 3.0 0.00 0.81 0.47 90 1010.7
20260506221526 42 351 2.0 5.0 0.00 0.81 0.47 89 1010.7
20260506220019 43 329 2.0 8.0 0.00 0.81 0.47 90 1010.8
20260506214522 43 298 5.0 9.0 0.00 0.81 0.47 90 1010.6
20260506213011 43 342 4.0 8.0 0.00 0.81 0.47 91 1010.4
20260506211512 42 343 3.0 11.0 0.00 0.81 0.47 91 1010.6
20260506210013 43 5 4.0 9.0 0.00 0.81 0.47 92 1010.4
20260506204523 42 345 3.0 10.0 0.00 0.81 0.47 93 1010.0
20260506203003 42 348 6.0 10.0 0.00 0.81 0.47 94 1009.7
20260506201508 42 25 3.0 13.0 0.00 0.81 0.47 95 1009.7
20260506200019 42 313 3.0 13.0 0.00 0.81 0.47 95 1009.9
20260506194516 42 347 3.0 12.0 0.00 0.81 0.47 95 1010.0
20260506193020 42 347 6.0 14.0 0.00 0.81 0.47 95 1009.8
20260506191509 42 339 6.0 14.0 0.00 0.81 0.47 94 1009.8
20260506190009 43 351 3.0 11.0 0.00 0.82 0.47 94 1009.5
20260506184516 43 335 4.0 10.0 0.00 0.82 0.47 94 1009.5
20260506183018 43 360 6.0 9.0 0.00 0.82 0.47 94 1009.2
20260506181522 43 344 5.0 12.0 0.00 0.82 0.47 94 1009.0
20260506180006 43 355 4.0 9.0 0.00 0.82 0.47 94 1008.8
20260506174509 43 11 2.0 11.0 0.00 0.82 0.47 95 1008.8
20260506173017 43 346 3.0 10.0 0.00 1.05 0.47 95 1008.9
20260506171520 43 5 3.0 6.0 0.00 1.09 0.47 95 1008.5
20260506170021 43 5 3.0 6.0 0.00 1.09 0.47 95 1008.5
20260506164508 43 19 2.0 8.0 0.00 1.09 0.47 96 1008.5
20260506163019 42 348 3.0 8.0 0.00 1.09 0.47 96 1008.7
20260506161518 42 9 3.0 6.0 0.00 1.09 0.47 96 1008.7
20260506160023 43 348 1.0 5.0 0.00 1.09 0.47 97 1008.9
20260506154536 42 355 3.0 7.0 0.00 1.09 0.47 97 1009.0
20260506153009 42 331 2.0 7.0 0.00 1.09 0.47 97 1009.1
20260506151514 42 322 3.0 5.0 0.00 1.09 0.47 97 1008.9
20260506150020 42 55 1.0 6.0 0.01 1.09 0.47 97 1008.5
20260506144522 42 28 1.0 7.0 0.02 1.09 0.47 97 1008.4
20260506143026 41 5 2.0 4.0 0.03 1.09 0.47 97 1008.6